London, United Kingdom

12:38 PM BST on June 23, 2017 (GMT +0100)
Heathrow

Weather History for EGLL - September, 2013

Change the Weather History Date:

Saturday, September 28, 2013

  Actual Average Record
Temperature  
Mean Temperature 60 °F -  
Max Temperature 68 °F 59 °F 77 °F (2011)
Min Temperature 53 °F 46 °F 44 °F (2008)
Degree Days  
Heating Degree Days 4    
Growing Degree Days 10 (Base 50)    
Moisture  
Dew Point 53 °F    
Average Humidity 78    
Maximum Humidity 94    
Minimum Humidity 51    
Precipitation  
Precipitation 0.01 in - - ()
Sea Level Pressure  
Sea Level Pressure 29.81 in    
Wind  
Wind Speed 8 mph ()    
Max Wind Speed 17 mph    
Max Gust Speed 28 mph    
Visibility 5.8 miles    
Events Rain    
Averages and records for this station are not official NWS values.
T = Trace of Precipitation, MM = Missing Value Source: Averaged Metar Reports

Daily Weather History Graph

Daily Weather History Graph

Search for Another Location

Airport or City:

Trip Planner

Search our weather history database for the weather conditions in past years. The results will help you decide how hot, cold, wet, or windy it might be!

Date:

Astronomy

Sep. 28, 2013 Rise Set
Actual Time 6:57 AM BST 6:46 PM BST
Civil Twilight 6:24 AM BST 7:19 PM BST
Nautical Twilight 5:45 AM BST 7:58 PM BST
Astronomical Twilight 5:05 AM BST 8:38 PM BST
Moon No Moon Rise 3:29 PM BST (9/28)
Length of Visible Light 12h 54m
Length of Day
11h 48m
Last Quarter, 38% of the Moon is Illuminated
Sep 28
Last Quarter
Oct 5
New
Oct 12
First Quarter
Oct 19
Full
Oct 27
Last Quarter

Hourly Weather History & Observations

Time (BST) Temp. Dew Point Humidity Pressure Visibility Wind Dir Wind Speed Gust Speed Precip Events Conditions
12:20 AM 53.6 °F 50.0 °F 88% 29.92 in 4.3 mi NE 5.8 mph - N/A   Unknown
12:50 AM 54 °F 50 °F 83% 29.92 in 6 mi NE 5.8 mph - -   Light Haze
12:50 AM 53.6 °F 51.8 °F 94% 29.92 in 4.3 mi NE 4.6 mph - N/A   Unknown
1:20 AM 53.6 °F 51.8 °F 94% 29.89 in 3.7 mi NE 5.8 mph - N/A   Unknown
1:50 AM 53.6 °F 51.8 °F 94% 29.89 in 3.1 mi ENE 5.8 mph - N/A   Unknown
2:20 AM 53.6 °F 51.8 °F 94% 29.89 in - NE 5.8 mph - N/A   Haze
2:50 AM 53.6 °F 51.8 °F 94% 29.86 in 2.8 mi ENE 5.8 mph - N/A   Haze
3:20 AM 53.6 °F 51.8 °F 94% 29.86 in 3.7 mi ENE 5.8 mph - N/A   Unknown
3:50 AM 55 °F 52 °F 84% 29.85 in 4 mi NE 5.8 mph - -   Light Haze
3:50 AM 55.4 °F 51.8 °F 88% 29.86 in 3.1 mi ENE 6.9 mph - N/A   Mist
4:20 AM 55.4 °F 51.8 °F 88% 29.83 in - ENE 8.1 mph - N/A   Mist
4:50 AM 53.6 °F 51.8 °F 94% 29.83 in - ENE 5.8 mph - N/A   Mist
5:20 AM 55.4 °F 51.8 °F 88% 29.83 in 3.1 mi NE 3.5 mph - N/A   Mist
5:50 AM 55.4 °F 51.8 °F 88% 29.86 in 3.1 mi Variable 2.3 mph - N/A   Mist
6:20 AM 55.4 °F 51.8 °F 88% 29.83 in 3.1 mi ENE 4.6 mph - N/A   Mist
6:50 AM 56 °F 52 °F 83% 29.83 in 4 mi ENE 5.8 mph - -   Light Haze
6:50 AM 55.4 °F 53.6 °F 94% 29.83 in 3.1 mi East 5.8 mph - N/A   Mist
7:20 AM 55.4 °F 53.6 °F 94% 29.83 in 3.7 mi NE 4.6 mph - N/A   Unknown
7:50 AM 55.4 °F 53.6 °F 94% 29.83 in 4.3 mi ENE 6.9 mph - N/A   Unknown
8:20 AM 57.2 °F 53.6 °F 88% 29.83 in 4.3 mi ENE 5.8 mph - N/A   Unknown
8:50 AM 57.2 °F 53.6 °F 88% 29.83 in 5.0 mi ENE 9.2 mph - N/A   Unknown
9:20 AM 59.0 °F 55.4 °F 88% 29.83 in 5.0 mi ENE 8.1 mph - N/A   Unknown
9:50 AM 61 °F 54 °F 73% 29.83 in 7 mi ENE 8.1 mph - -  
9:50 AM 60.8 °F 55.4 °F 82% 29.83 in 5.0 mi ENE 10.4 mph - N/A   Unknown
10:20 AM 62.6 °F 55.4 °F 77% 29.83 in - ENE 11.5 mph - N/A   Clear
10:50 AM 62.6 °F 55.4 °F 77% 29.83 in - ENE 10.4 mph - N/A   Clear
11:20 AM 64.4 °F 57.2 °F 77% 29.80 in - ENE 10.4 mph - N/A   Clear
11:50 AM 66.2 °F 57.2 °F 73% 29.80 in - East 9.2 mph - N/A   Clear
12:20 PM 66.2 °F 57.2 °F 73% 29.80 in - ESE 15.0 mph 27.6 mph N/A   Clear
12:50 PM 66 °F 55 °F 59% 29.81 in 10 mi East 13.8 mph - -  
12:50 PM 66.2 °F 57.2 °F 73% 29.80 in - East 13.8 mph - N/A   Clear
1:20 PM 66.2 °F 57.2 °F 73% 29.80 in - East 15.0 mph - N/A   Clear
1:50 PM 66.2 °F 55.4 °F 68% 29.80 in 6.2 mi East 17.3 mph - N/A   Partly Cloudy
2:20 PM 66.2 °F 55.4 °F 68% 29.80 in - East 15.0 mph - N/A   Clear
2:50 PM 64.4 °F 53.6 °F 68% 29.80 in - East 13.8 mph - N/A   Clear
3:20 PM 64.4 °F 51.8 °F 64% 29.80 in - East 15.0 mph - N/A   Clear
3:50 PM 64 °F 50 °F 51% 29.78 in 17 mi East 11.5 mph - -  
3:50 PM 64.4 °F 51.8 °F 64% 29.77 in - East 13.8 mph - N/A   Clear
4:20 PM 64.4 °F 51.8 °F 64% 29.77 in - East 10.4 mph - N/A   Clear
4:50 PM 64.4 °F 48.2 °F 56% 29.77 in - ENE 11.5 mph - N/A   Clear
5:20 PM 62.6 °F 48.2 °F 59% 29.77 in - East 12.7 mph - N/A   Clear
5:50 PM 62.6 °F 48.2 °F 59% 29.77 in - East 15.0 mph - N/A   Clear
6:20 PM 60.8 °F 50.0 °F 68% 29.77 in - East 11.5 mph - N/A   Clear
6:50 PM 60 °F 49 °F 57% 29.77 in 18 mi ENE 9.2 mph - -  
6:50 PM 59.0 °F 50.0 °F 72% 29.77 in - ENE 9.2 mph - N/A   Clear
7:20 PM 59.0 °F 50.0 °F 72% 29.77 in - ENE 10.4 mph - N/A   Clear
7:50 PM 59.0 °F 50.0 °F 72% 29.77 in - ENE 13.8 mph - N/A   Clear
8:20 PM 59.0 °F 51.8 °F 77% 29.77 in - East 11.5 mph - N/A   Clear
8:50 PM 59.0 °F 51.8 °F 77% 29.77 in - ENE 11.5 mph - N/A   Clear
9:20 PM 59.0 °F 51.8 °F 77% 29.80 in - East 11.5 mph - N/A   Clear
9:50 PM 60 °F 52 °F 66% 29.78 in 14 mi East 12.7 mph - - Rain Light Rain Showers
9:50 PM 60.8 °F 51.8 °F 72% 29.80 in 6.2 mi East 13.8 mph - N/A Rain Light Rain
10:20 PM 60.8 °F 51.8 °F 72% 29.77 in - East 13.8 mph - N/A   Clear
10:50 PM 60.8 °F 51.8 °F 72% 29.77 in - East 13.8 mph - N/A   Clear
11:20 PM 60.8 °F 51.8 °F 72% 29.74 in 6.2 mi ENE 10.4 mph - N/A Rain Light Rain
11:50 PM 59.0 °F 53.6 °F 82% 29.74 in 5.0 mi East 11.5 mph - N/A Rain Light Rain